Weather History for KMGW - December, 2014

Change the Weather History Date:

Tuesday, December 23, 2014

  Actual Average Record
Temperature  
Mean Temperature 52 °F 33 °F  
Max Temperature 62 °F 41 °F 62 °F (1957)
Min Temperature 41 °F 25 °F -3 °F (1989)
Degree Days  
Heating Degree Days 13 32  
Month to date heating degree days 621 675  
Since 1 July heating degree days 1651 1723  
Cooling Degree Days 0 0  
Month to date cooling degree days 0 0  
Year to date cooling degree days 981 814  
Growing Degree Days 2 (Base 50)    
Moisture  
Dew Point 40 °F    
Average Humidity 62    
Maximum Humidity 73    
Minimum Humidity 51    
Precipitation  
Precipitation T in 0.10 in 1.15 in (1970)
Month to date precipitation 2.47 2.22  
Year to date precipitation 41.30 41.14  
Sea Level Pressure  
Sea Level Pressure 29.89 in    
Wind  
Wind Speed 6 mph (ESE)    
Max Wind Speed 14 mph    
Max Gust Speed 17 mph    
Visibility 10 miles    
Events Rain    
T = Trace of Precipitation, MM = Missing Value Source: NWS Daily Summary

Daily Weather History Graph

Daily Weather History Graph

Search for Another Location

Airport or City:

Trip Planner

Search our weather history database for the weather conditions in past years. The results will help you decide how hot, cold, wet, or windy it might be!

Date:

Astronomy

Dec. 23, 2014 Rise Set
Actual Time 7:37 AM EST 4:59 PM EST
Civil Twilight 7:07 AM EST 5:30 PM EST
Nautical Twilight 6:33 AM EST 6:04 PM EST
Astronomical Twilight 6:00 AM EST 6:36 PM EST
Moon 8:41 AM EST (12/23) 7:12 PM EST (12/23)
Length of Visible Light 10h 22m
Length of Day
9h 21m
Waxing Crescent, 4% of the Moon is Illuminated
Dec 23
Waxing Crescent
Dec 28
First Quarter
Jan 4
Full
Jan 13
Last Quarter
Jan 20
New

Hourly Weather History & Observations

Time (EST) Temp. Windchill Dew Point Humidity Pressure Visibility Wind Dir Wind Speed Gust Speed Precip Events Conditions
12:53 AM 44.1 °F 40.1 °F 33.1 °F 65% 29.92 in 10.0 mi East 6.9 mph - N/A   Overcast
1:53 AM 41.0 °F - 33.1 °F 73% 29.90 in 10.0 mi Calm Calm - N/A   Clear
2:53 AM 44.1 °F 39.0 °F 35.1 °F 71% 29.89 in 10.0 mi ESE 9.2 mph - N/A   Clear
3:53 AM 46.0 °F 41.4 °F 37.0 °F 71% 29.89 in 10.0 mi SSE 9.2 mph - N/A   Mostly Cloudy
4:53 AM 48.0 °F - 37.9 °F 68% 29.87 in 10.0 mi SE 6.9 mph - N/A   Mostly Cloudy
5:53 AM 48.9 °F - 39.0 °F 69% 29.89 in 10.0 mi SE 8.1 mph - 0.00 in Rain Light Rain
6:53 AM 48.0 °F - 39.0 °F 71% 29.92 in 10.0 mi ESE 5.8 mph - 0.00 in   Overcast
7:53 AM 48.9 °F - 39.9 °F 71% 29.90 in 10.0 mi ESE 5.8 mph - N/A   Overcast
8:53 AM 52.0 °F - 41.0 °F 66% 29.92 in 10.0 mi SSE 5.8 mph - N/A   Overcast
9:53 AM 55.0 °F - 43.0 °F 64% 29.93 in 10.0 mi SE 6.9 mph - N/A   Overcast
10:53 AM 60.1 °F - 43.0 °F 53% 29.92 in 10.0 mi ESE 6.9 mph - N/A   Mostly Cloudy
11:53 AM 59.0 °F - 44.1 °F 58% 29.91 in 10.0 mi SSE 5.8 mph - N/A   Overcast
12:53 PM 62.1 °F - 45.0 °F 53% 29.89 in 10.0 mi SE 9.2 mph - N/A   Mostly Cloudy
1:53 PM 60.1 °F - 43.0 °F 53% 29.88 in 10.0 mi East 4.6 mph - N/A   Overcast
2:53 PM 59.0 °F - 43.0 °F 55% 29.89 in 10.0 mi ESE 4.6 mph - N/A   Overcast
3:53 PM 59.0 °F - 43.0 °F 55% 29.89 in 10.0 mi ESE 3.5 mph - N/A   Overcast
4:53 PM 57.0 °F - 42.1 °F 57% 29.88 in 10.0 mi ESE 4.6 mph - N/A   Clear
5:53 PM 55.0 °F - 42.1 °F 62% 29.87 in 10.0 mi ENE 4.6 mph - N/A   Clear
6:53 PM 55.0 °F - 41.0 °F 59% 29.88 in 10.0 mi ESE 10.4 mph - N/A   Clear
7:53 PM 53.1 °F - 39.9 °F 61% 29.88 in 10.0 mi Variable 4.6 mph - N/A   Clear
8:53 PM 52.0 °F - 39.9 °F 63% 29.87 in 10.0 mi East 5.8 mph - N/A   Clear
9:53 PM 52.0 °F - 41.0 °F 66% 29.86 in 10.0 mi SE 3.5 mph - N/A   Partly Cloudy
10:53 PM 53.1 °F - 42.1 °F 66% 29.86 in 10.0 mi SSE 5.8 mph - N/A   Scattered Clouds
11:53 PM 53.1 °F - 44.1 °F 71% 29.85 in 10.0 mi SSE 11.5 mph - 0.00 in   Overcast